SHT7LT EGLL-EGPH

Flight info

Callsign SHT7LT
Flight time N/A
Altitude 26000
Route UMLAT T418 WELIN T420 TNT UN57 POL UN601 RIBEL DCT INPIP
Aircraft A320/M-SDE3FGHIRWY/LB1

Departure

Time 2026-05-04 14:04
Airport London Heathrow Airport (EGLL)

Arrival

Time N/A
Airport Edinburgh Airport (EGPH)
Time Latitude Longitude Altitude Speed Heading
2026-05-04 13:38 51.47232 -0.48585 91 ft 0 kts 270°
2026-05-04 13:52 51.47233 -0.48565 89 ft 4 kts 270°
2026-05-04 13:53 51.47233 -0.48524 89 ft 2 kts 270°
2026-05-04 13:53 51.47235 -0.48491 90 ft 4 kts 234°
2026-05-04 13:53 51.47254 -0.48473 91 ft 3 kts 180°
2026-05-04 13:54 51.47272 -0.48473 86 ft 0 kts 180°
2026-05-04 13:55 51.47261 -0.48473 90 ft 6 kts 179°
2026-05-04 13:56 51.47184 -0.48472 88 ft 13 kts 179°
2026-05-04 13:56 51.47084 -0.48471 90 ft 16 kts 179°
2026-05-04 13:56 51.46826 -0.48469 86 ft 17 kts 180°
2026-05-04 13:57 51.46703 -0.48468 86 ft 15 kts 180°
2026-05-04 13:57 51.46651 -0.48372 86 ft 14 kts 89°
2026-05-04 13:58 51.46655 -0.47643 86 ft 27 kts 89°
2026-05-04 13:58 51.46657 -0.46995 90 ft 31 kts 89°
2026-05-04 13:58 51.46658 -0.46662 90 ft 29 kts 90°
2026-05-04 13:59 51.46660 -0.46364 87 ft 27 kts 89°
2026-05-04 13:59 51.46661 -0.46051 86 ft 27 kts 90°
2026-05-04 13:59 51.46663 -0.45437 86 ft 26 kts 90°
2026-05-04 14:00 51.46663 -0.45186 86 ft 23 kts 90°
2026-05-04 14:00 51.46664 -0.44918 87 ft 13 kts 90°
2026-05-04 14:00 51.46665 -0.44732 87 ft 18 kts 89°
2026-05-04 14:01 51.46665 -0.44510 86 ft 21 kts 89°
2026-05-04 14:01 51.46667 -0.44279 86 ft 15 kts 89°
2026-05-04 14:01 51.46667 -0.44207 86 ft 3 kts 90°
2026-05-04 14:02 51.46667 -0.44132 86 ft 8 kts 90°
2026-05-04 14:02 51.46667 -0.44010 86 ft 14 kts 90°
2026-05-04 14:02 51.46662 -0.43845 86 ft 16 kts 112°
2026-05-04 14:02 51.46574 -0.43824 86 ft 15 kts 182°
2026-05-04 14:03 51.46495 -0.43868 87 ft 11 kts 258°
2026-05-04 14:03 51.46494 -0.43900 86 ft 2 kts 269°
2026-05-04 14:03 51.46492 -0.44144 86 ft 57 kts 269°
2026-05-04 14:03 51.46490 -0.45149 88 ft 120 kts 270°
2026-05-04 14:04 51.46483 -0.48486 824 ft 158 kts 271°
2026-05-04 14:04 51.46511 -0.50266 1453 ft 165 kts 280°
2026-05-04 14:04 51.46930 -0.52128 1789 ft 187 kts 299°
2026-05-04 14:05 51.48269 -0.56287 2548 ft 236 kts 298°
2026-05-04 14:05 51.49052 -0.58742 3113 ft 256 kts 298°
2026-05-04 14:05 51.49886 -0.61361 3993 ft 263 kts 297°
2026-05-04 14:06 51.50731 -0.63937 4956 ft 267 kts 302°
2026-05-04 14:06 51.51951 -0.66208 5807 ft 272 kts 320°
2026-05-04 14:06 51.53616 -0.67688 6719 ft 278 kts 342°
2026-05-04 14:06 51.55540 -0.68157 7605 ft 283 kts 355°
2026-05-04 14:07 51.57515 -0.68380 8500 ft 286 kts 354°
2026-05-04 14:07 51.59515 -0.68602 9376 ft 290 kts 354°
2026-05-04 14:07 51.61543 -0.68822 10228 ft 296 kts 354°
2026-05-04 14:07 51.63685 -0.69054 10559 ft 320 kts 354°
2026-05-04 14:08 51.65973 -0.69304 10992 ft 336 kts 354°
2026-05-04 14:08 51.68327 -0.69563 11687 ft 341 kts 354°
2026-05-04 14:08 51.70707 -0.69827 12400 ft 345 kts 354°
2026-05-04 14:08 51.73124 -0.70096 12889 ft 350 kts 354°
2026-05-04 14:09 51.77991 -0.70631 13261 ft 353 kts 354°
2026-05-04 14:09 51.80449 -0.70906 14048 ft 355 kts 354°
2026-05-04 14:10 51.85441 -0.71471 15351 ft 364 kts 354°
2026-05-04 14:10 51.87990 -0.71763 15966 ft 369 kts 354°
2026-05-04 14:10 51.90565 -0.72055 16612 ft 372 kts 355°
2026-05-04 14:10 51.93164 -0.72345 17215 ft 377 kts 355°
2026-05-04 14:11 51.95796 -0.72638 17826 ft 381 kts 355°
2026-05-04 14:11 52.01128 -0.73293 19040 ft 388 kts 351°
2026-05-04 14:11 52.03769 -0.74252 19624 ft 390 kts 341°
2026-05-04 14:12 52.06349 -0.75607 20275 ft 391 kts 340°
2026-05-04 14:12 52.08950 -0.76970 20897 ft 394 kts 340°
2026-05-04 14:12 52.14201 -0.79715 22052 ft 399 kts 340°
2026-05-04 14:13 52.16820 -0.81086 22643 ft 402 kts 340°
2026-05-04 14:13 52.19491 -0.82486 23227 ft 405 kts 340°
2026-05-04 14:13 52.22181 -0.83900 23758 ft 408 kts 340°
2026-05-04 14:13 52.24840 -0.85531 24214 ft 409 kts 333°
2026-05-04 14:14 52.27325 -0.87796 24658 ft 410 kts 326°
2026-05-04 14:14 52.32234 -0.92689 25535 ft 416 kts 326°
2026-05-04 14:14 52.34711 -0.95157 25933 ft 419 kts 326°
2026-05-04 14:15 52.39637 -1.00054 26075 ft 406 kts 327°
2026-05-04 14:15 52.44437 -1.04853 26053 ft 403 kts 327°
2026-05-04 14:16 52.49216 -1.09666 26051 ft 403 kts 327°
2026-05-04 14:16 52.51604 -1.12077 26046 ft 403 kts 327°
2026-05-04 14:17 52.56380 -1.16891 26039 ft 402 kts 327°
2026-05-04 14:17 52.58772 -1.19295 26039 ft 402 kts 327°
2026-05-04 14:17 52.63551 -1.24110 26033 ft 403 kts 327°
2026-05-04 14:18 52.65935 -1.26530 26042 ft 403 kts 327°
2026-05-04 14:18 52.70709 -1.31376 26047 ft 403 kts 327°
2026-05-04 14:19 52.75481 -1.36233 26100 ft 403 kts 327°
2026-05-04 14:19 52.77865 -1.38666 26099 ft 403 kts 329°
2026-05-04 14:19 52.80249 -1.41105 26099 ft 403 kts 329°
2026-05-04 14:19 52.82630 -1.43544 26099 ft 403 kts 329°
2026-05-04 14:20 52.85012 -1.45981 26104 ft 403 kts 329°
2026-05-04 14:20 52.87363 -1.48386 26103 ft 402 kts 329°
2026-05-04 14:20 52.89741 -1.50823 26101 ft 402 kts 329°
2026-05-04 14:21 52.94496 -1.55720 26104 ft 402 kts 329°
2026-05-04 14:21 52.96877 -1.58172 26102 ft 402 kts 329°
2026-05-04 14:21 52.99253 -1.60621 26100 ft 402 kts 329°
2026-05-04 14:21 53.01628 -1.63076 26091 ft 402 kts 330°
2026-05-04 14:22 53.04001 -1.65536 26097 ft 402 kts 331°
2026-05-04 14:22 53.06472 -1.67657 26095 ft 399 kts 340°
2026-05-04 14:22 53.09063 -1.69279 26095 ft 398 kts 342°
2026-05-04 14:22 53.11658 -1.70879 26095 ft 398 kts 342°
2026-05-04 14:23 53.16843 -1.74089 26094 ft 398 kts 342°
2026-05-04 14:23 53.19437 -1.75699 26094 ft 398 kts 342°
2026-05-04 14:23 53.22033 -1.77311 26094 ft 398 kts 342°
2026-05-04 14:24 53.24624 -1.78925 26082 ft 397 kts 342°
2026-05-04 14:24 53.27208 -1.80538 26088 ft 397 kts 342°
2026-05-04 14:24 53.29795 -1.82155 26094 ft 396 kts 342°
2026-05-04 14:24 53.32379 -1.83771 26094 ft 396 kts 342°
2026-05-04 14:25 53.34957 -1.85385 26091 ft 396 kts 342°
2026-05-04 14:25 53.40111 -1.88619 26097 ft 395 kts 342°
2026-05-04 14:25 53.42685 -1.90237 26097 ft 395 kts 342°
2026-05-04 14:26 53.45258 -1.91855 26087 ft 395 kts 342°
2026-05-04 14:26 53.47831 -1.93472 26086 ft 395 kts 342°
2026-05-04 14:26 53.49535 -1.94543 26086 ft 395 kts 342°
2026-05-04 14:26 53.52108 -1.96165 26084 ft 395 kts 342°
2026-05-04 14:27 53.54679 -1.97788 26079 ft 395 kts 342°
2026-05-04 14:27 53.57252 -1.99418 26079 ft 395 kts 342°
2026-05-04 14:27 53.59835 -2.01059 26071 ft 403 kts 342°
2026-05-04 14:27 53.62516 -2.02762 26066 ft 419 kts 342°
2026-05-04 14:28 53.65288 -2.04524 26069 ft 432 kts 342°
2026-05-04 14:28 53.68132 -2.06333 26064 ft 443 kts 341°
2026-05-04 14:28 53.71028 -2.08183 26058 ft 447 kts 341°
2026-05-04 14:28 53.73938 -2.10041 26051 ft 447 kts 341°
2026-05-04 14:29 53.79739 -2.13875 26059 ft 448 kts 340°
2026-05-04 14:29 53.85500 -2.17862 26060 ft 448 kts 340°
2026-05-04 14:30 53.88386 -2.19866 26058 ft 448 kts 340°
2026-05-04 14:30 53.91266 -2.21858 26060 ft 448 kts 340°
2026-05-04 14:30 53.97037 -2.25828 26054 ft 447 kts 340°
2026-05-04 14:31 53.99921 -2.27808 26057 ft 447 kts 340°
2026-05-04 14:31 54.05678 -2.31776 26057 ft 446 kts 340°
2026-05-04 14:32 54.11384 -2.35722 26064 ft 445 kts 340°
2026-05-04 14:32 54.14296 -2.37735 26057 ft 445 kts 340°
2026-05-04 14:32 54.17128 -2.39692 26058 ft 445 kts 340°
2026-05-04 14:32 54.19994 -2.41677 26057 ft 445 kts 340°
2026-05-04 14:33 54.22868 -2.43677 26046 ft 445 kts 339°
2026-05-04 14:33 54.25727 -2.45673 26050 ft 444 kts 339°
2026-05-04 14:33 54.28587 -2.47675 26057 ft 444 kts 339°
2026-05-04 14:33 54.31448 -2.49676 26059 ft 444 kts 339°
2026-05-04 14:34 54.34304 -2.51679 26055 ft 443 kts 339°
2026-05-04 14:34 54.37155 -2.53679 26051 ft 443 kts 339°
2026-05-04 14:34 54.40007 -2.55680 26052 ft 443 kts 339°
2026-05-04 14:34 54.42863 -2.57686 26048 ft 443 kts 339°
2026-05-04 14:35 54.45710 -2.59689 26045 ft 443 kts 339°
2026-05-04 14:35 54.48560 -2.61700 26044 ft 442 kts 339°
2026-05-04 14:35 54.51403 -2.63720 26052 ft 442 kts 338°
2026-05-04 14:35 54.54244 -2.65739 26049 ft 442 kts 338°
2026-05-04 14:36 54.57085 -2.67752 26047 ft 441 kts 338°
2026-05-04 14:36 54.59924 -2.69767 26038 ft 441 kts 338°
2026-05-04 14:36 54.62728 -2.71758 26039 ft 441 kts 338°
2026-05-04 14:36 54.65566 -2.73776 26033 ft 441 kts 338°
2026-05-04 14:37 54.68403 -2.75799 26032 ft 441 kts 338°
2026-05-04 14:37 54.71238 -2.77826 26038 ft 441 kts 338°
2026-05-04 14:37 54.74072 -2.79855 26038 ft 440 kts 338°
2026-05-04 14:37 54.76902 -2.81882 26042 ft 440 kts 338°
2026-05-04 14:38 54.79726 -2.83912 26050 ft 439 kts 338°
2026-05-04 14:38 54.82548 -2.85943 26053 ft 439 kts 338°
2026-05-04 14:38 54.85311 -2.87935 26033 ft 420 kts 338°
2026-05-04 14:38 54.87971 -2.89855 26036 ft 413 kts 338°
2026-05-04 14:39 54.90648 -2.91784 25404 ft 419 kts 338°
2026-05-04 14:39 54.93307 -2.93701 25034 ft 401 kts 338°
2026-05-04 14:39 54.95800 -2.95500 24688 ft 380 kts 338°
2026-05-04 14:40 55.00594 -2.98963 23220 ft 369 kts 336°